Regional Weather Roundup
Issued by NWS

Home | Current Version | Previous Version | Text Only | Print | Product List | Glossary On
Versions: 1 2 3 4 5 6 7 8 9 10 11 12 13 14 15 16 17 18 19 20 21 22 23 24 25 26 27 28 29 30 31 32 33 34 35 36 37 38 39 40 41 42 43 44 45 46 47 48 49 50
000
ASUS43 KFSD 070010
RWRSD

WEATHER ROUNDUP FOR SOUTH DAKOTA
NATIONAL WEATHER SERVICE SIOUX FALLS SD
700 PM CDT WED MAY 06 2015

NOTE: "FAIR" INDICATES FEW OR NO CLOUDS BELOW 12,000 FEET WITH NO
SIGNIFICANT WEATHER AND/OR OBSTRUCTIONS TO VISIBILITY.


SDZ001>005-009-010-012>017-070100-
NORTHWEST AND NORTH CENTRAL SOUTH DAKOTA

CITY           SKY/WX    TMP DP  RH WIND       PRES   REMARKS
BUFFALO          N/A     54  50  86 NW28G37   29.61R
FAITH            N/A     59  54  83 SE8       29.60S
MOBRIDGE       CLOUDY    70  58  65 SE10      29.55F
$$

SDZ012>016-024>037-041>051-057-063-072>074-070100-
SOUTHWEST AND SOUTH CENTRAL SOUTH DAKOTA

CITY           SKY/WX    TMP DP  RH WIND       PRES   REMARKS
RAPID CTY ARPT LGT RAIN  54  49  83 NW32G44   29.63F
PIERRE         CLOUDY    67  57  70 S10       29.58S
CUSTER         LGT RAIN  50  46  86 N9        29.69S FOG
ELLSWORTH AFB  CLOUDY    54  49  81 NW35G45   29.62R
PHILIP         RAIN      60  58  92 S9        29.59S
PINE RIDGE     CLOUDY    61  51  70 VRB3      29.60R
SPEARFISH      FOG       46  46 100 W15       29.74R VSB 3/4
WINNER         LGT RAIN  64  58  80 SE3       29.60S
$$

SDZ004>011-016>023-039-040-070100-
NORTHEAST SOUTH DAKOTA

CITY           SKY/WX    TMP DP  RH WIND       PRES   REMARKS
ABERDEEN       LGT RAIN  66  62  87 S15G25    29.61F
WATERTOWN      CLOUDY    66  61  84 S20G28    29.67F
BROOKINGS      PTSUNNY   66  61  82 S28G36    29.72S
SISSETON         N/A     68  62  81 S16       29.65F
$$

SDZ017-020-022-023-036>040-048>070-070100-
SOUTHEAST SOUTH DAKOTA

CITY           SKY/WX    TMP DP  RH WIND       PRES   REMARKS
SIOUX FALLS    CLOUDY    67  60  78 S16G30    29.72F
HURON          CLOUDY    68  63  83 S10       29.62S THUNDER
CHAMBERLAIN    LGT RAIN  61  60  97 W3        29.61S
MITCHELL       PTSUNNY   71  60  68 S23G32    29.64S
YANKTON        MOSUNNY   68  61  77 SE20G30   29.67F
$$

ABBREVIATIONS USED IN REMARKS
   TC - TEMPERATURE IN CELSIUS
  WCI - WIND CHILL INDEX
   HX - HEAT INDEX
  VSB - VISIBILITY



USA.gov is the U.S. government's official web portal to all federal, state and local government web resources and services.